Location: Arezzo
(43.4170°N, 11.8830°E)
Time: 09:03:07
(UTC+01:00)

ISS - Pass Details

Date: 22 December 2025
Orbit: 414 x 424 km, 51.6° (Epoch: 14 January)

Event Time Altitude Azimuth Distance (km) Brightness Sun altitude
Exits shadow 06:25:31 17° 332° (NNW) 1,161 -2.0 -13.4°
Maximum altitude 06:26:41 20° 359° (N) 1,053 -1.9 -13.2°
Drops below altitude 10° 06:29:17 10° 49° (NE) 1,519 -0.5 -12.7°
Sets 06:31:51 0° 67° (ENE) 2,404 0.9 -12.3°
